Redwood Falls, MN

2:13 AM CST on February 10, 2016 (GMT -0600)
Redwood Falls Municipal

Weather History for KRWF - December, 2012

Change the Weather History Date:

Sunday, December 16, 2012

  Actual Average Record
Temperature  
Mean Temperature 18 °F -  
Max Temperature 24 °F 27 °F 61 °F (1939)
Min Temperature 12 °F 9 °F -21 °F (1953)
Degree Days  
Heating Degree Days 47    
Moisture  
Dew Point 15 °F    
Average Humidity 86    
Maximum Humidity 93    
Minimum Humidity 79    
Precipitation  
Precipitation 0.00 in - - ()
Sea Level Pressure  
Sea Level Pressure 29.79 in    
Wind  
Wind Speed 15 mph (NW)    
Max Wind Speed 20 mph    
Max Gust Speed 30 mph    
Visibility 9 miles    
Events      
Averages and records for this station are not official NWS values.
T = Trace of Precipitation, MM = Missing Value Source: NWS Daily Summary

Daily Weather History Graph

Daily Weather History Graph

Search for Another Location

Airport or City:

Trip Planner

Search our weather history database for the weather conditions in past years. The results will help you decide how hot, cold, wet, or windy it might be!

Date:

Astronomy

Dec. 16, 2012 Rise Set
Actual Time 7:51 AM CST 4:41 PM CST
Civil Twilight 7:17 AM CST 5:14 PM CST
Nautical Twilight 6:40 AM CST 5:51 PM CST
Astronomical Twilight 6:05 AM CST 6:27 PM CST
Moon 10:18 AM CST (12/16) 9:04 PM CST (12/16)
Length of Visible Light 9h 57m
Length of Day
8h 50m
Waxing Crescent, 16% of the Moon is Illuminated
Dec 16
Waxing Crescent
Dec 19
First Quarter
Dec 28
Full
Jan 4
Last Quarter
Jan 11
New

Hourly Weather History & Observations

Time (CST) Temp. Windchill Dew Point Humidity Pressure Visibility Wind Dir Wind Speed Gust Speed Precip Events Conditions
12:00 AM 24.8 °F 11.9 °F 19.4 °F 80% 29.63 in 8.0 mi NW 16.1 mph 29.9 mph N/A   Overcast
12:53 AM 21.9 °F 6.9 °F 18.0 °F 85% 29.68 in 9.0 mi NW 19.6 mph 27.6 mph N/A   Overcast
1:53 AM 19.9 °F 4.8 °F 16.0 °F 85% 29.70 in 9.0 mi NW 18.4 mph - N/A   Overcast
2:37 AM 17.6 °F 2.7 °F 14.0 °F 86% 29.69 in 10.0 mi WNW 16.1 mph - N/A   Scattered Clouds
2:53 AM 17.1 °F 2.0 °F 12.9 °F 84% 29.74 in 10.0 mi NW 16.1 mph - N/A   Partly Cloudy
3:53 AM 15.1 °F -0.6 °F 10.9 °F 84% 29.76 in 10.0 mi NW 16.1 mph - N/A   Clear
4:53 AM 14.0 °F -1.4 °F 10.0 °F 84% 29.77 in 10.0 mi NW 15.0 mph 23.0 mph N/A   Clear
5:53 AM 12.9 °F -2.8 °F 9.0 °F 84% 29.78 in 10.0 mi NW 15.0 mph 24.2 mph N/A   Clear
6:53 AM 12.9 °F -3.4 °F 9.0 °F 84% 29.78 in 10.0 mi NW 16.1 mph 25.3 mph N/A   Clear
7:25 AM 14.0 °F -3.0 °F 10.4 °F 86% 29.75 in 9.0 mi NW 18.4 mph 27.6 mph N/A   Mostly Cloudy
7:53 AM 14.0 °F -2.5 °F 10.9 °F 88% 29.80 in 6.0 mi NW 17.3 mph 23.0 mph N/A   Overcast
8:29 AM 15.8 °F 0.9 °F 12.2 °F 86% 29.76 in 7.0 mi NW 15.0 mph 21.9 mph N/A   Overcast
8:53 AM 17.1 °F 3.0 °F 12.9 °F 84% 29.81 in 9.0 mi NW 13.8 mph 19.6 mph N/A   Overcast
9:07 AM 17.6 °F 3.2 °F 12.2 °F 79% 29.77 in 9.0 mi NNW 15.0 mph - N/A   Overcast
9:53 AM 18.0 °F 4.2 °F 12.9 °F 81% 29.82 in 10.0 mi NW 13.8 mph 23.0 mph N/A   Overcast
10:53 AM 19.0 °F 6.1 °F 14.0 °F 81% 29.83 in 10.0 mi NNW 12.7 mph 19.6 mph N/A   Overcast
11:53 AM 19.9 °F 5.7 °F 15.1 °F 81% 29.82 in 10.0 mi NW 16.1 mph 21.9 mph N/A   Overcast
12:53 PM 21.0 °F 8.6 °F 16.0 °F 81% 29.81 in 10.0 mi NW 12.7 mph 21.9 mph N/A   Overcast
1:53 PM 21.0 °F 7.6 °F 17.1 °F 85% 29.81 in 10.0 mi NW 15.0 mph 23.0 mph N/A   Overcast
2:53 PM 21.9 °F 9.8 °F 17.1 °F 82% 29.81 in 10.0 mi NNW 12.7 mph - N/A   Overcast
3:37 PM 21.2 °F 10.1 °F 17.6 °F 86% 29.76 in 10.0 mi NNW 10.4 mph - N/A   Overcast
3:53 PM 21.9 °F 12.5 °F 18.0 °F 85% 29.82 in 10.0 mi NNW 8.1 mph - N/A   Overcast
4:53 PM 21.9 °F 10.4 °F 18.0 °F 85% 29.83 in 10.0 mi NNW 11.5 mph - N/A   Overcast
5:53 PM 21.0 °F 9.9 °F 18.0 °F 88% 29.84 in 10.0 mi NNW 10.4 mph - N/A   Overcast
6:53 PM 21.0 °F 9.9 °F 18.0 °F 88% 29.86 in 10.0 mi NNW 10.4 mph - N/A   Overcast
7:53 PM 19.9 °F 9.3 °F 18.0 °F 92% 29.87 in 10.0 mi NNW 9.2 mph - N/A   Overcast
8:53 PM 19.9 °F 11.1 °F 18.0 °F 92% 29.86 in 9.0 mi NNW 6.9 mph - N/A   Overcast
9:19 PM 19.4 °F 11.5 °F 17.6 °F 93% 29.82 in 7.0 mi NNW 5.8 mph - N/A   Overcast
9:53 PM 19.9 °F 13.4 °F 18.0 °F 92% 29.87 in 6.0 mi NNW 4.6 mph - N/A   Overcast
10:53 PM 19.9 °F 12.1 °F 18.0 °F 92% 29.86 in 6.0 mi North 5.8 mph - N/A   Overcast
11:53 PM 19.9 °F 12.1 °F 18.0 °F 92% 29.87 in 5.0 mi WNW 5.8 mph - N/A   Overcast